Regional Weather Roundup
Issued by NWS

Home | Current Version | Previous Version | Text Only | Print | Product List | Glossary Off
Versions: 1 2 3 4 5 6 7 8 9 10 11 12 13 14 15 16 17 18 19 20 21 22 23 24 25 26 27 28 29 30 31 32 33 34 35 36 37 38 39 40 41 42 43 44 45 46 47 48 49 50

000
ASUS43 KMKX 251421
RWRWI

WISCONSIN REGIONAL WEATHER ROUNDUP
NATIONAL WEATHER SERVICE MILWAUKEE/SULLIVAN WI
900 AM CDT SAT MAR 25 2017

NOTE: "FAIR" INDICATES FEW OR NO CLOUDS BELOW 12,000 FEET WITH NO
SIGNIFICANT WEATHER AND/OR OBSTRUCTIONS TO VISIBILITY.

WIZ001-002-006>008-014>016-023>028-251500-
NORTHWEST WISCONSIN

CITY           SKY/WX    TMP DP  RH WIND       PRES   REMARKS
SUPERIOR ARPT  CLOUDY    34  31  88 E15       30.29S WCI  24
ASHLAND        CLOUDY    33  29  85 NE13      30.29F WCI  24
HAYWARD        CLOUDY    36  28  73 NE12      30.22F WCI  28
SIREN          CLOUDY    35  30  83 CALM      30.22S
CUMBERLAND     CLOUDY    34  30  86 E12       30.20S WCI  25
RICE LAKE      CLOUDY    35  31  84 E8        30.22R WCI  29
CHETEK         CLOUDY    35  31  85 CALM      30.21R
LADYSMITH      CLOUDY    35  31  87 E12G18    30.23R WCI  26
EAU CLAIRE     CLOUDY    36  30  79 E13G24    30.19R WCI  27
MENOMONIE      CLOUDY    37  32  82 NE13      30.20R WCI  28
NEW RICHMOND   CLOUDY    36  30  80 E12       30.19S WCI  27
OSCEOLA        CLOUDY    37  31  80 E12       30.22F WCI  29
$$

WIZ003>005-009-010-017-018-251500-
NORTH CENTRAL WISCONSIN

CITY           SKY/WX    TMP DP  RH WIND       PRES   REMARKS
MANITOWISH WTR CLOUDY    32  32 100 NE9       30.23S WCI  24
ARBOR VITAE    CLOUDY    34  31  89 E8        30.22S WCI  27
WOODRUFF       CLOUDY    34  31  89 E8        30.22S WCI  27
RHINELANDER    CLOUDY    35  30  82 E13G22    30.23R WCI  26
EAGLE RIVER    CLOUDY    32  31  94 E9        30.23S WCI  24
LAND O LAKES   CLOUDY    32  31  96 E6        30.26S WCI  26
PHILLIPS       CLOUDY    33  30  91 E9G16     30.21R WCI  25
TOMAHAWK       CLOUDY    33  28  83 E9G17     30.23R WCI  25
MEDFORD        CLOUDY    32  29  89 E16       30.19R WCI  22
MERRILL        CLOUDY    34  30  86 E12G21    30.22R WCI  25
$$

WIZ029-030-035-036-043>047-251500-
CENTRAL WISCONSIN

CITY           SKY/WX    TMP DP  RH WIND       PRES   REMARKS
WAUSAU         CLOUDY    34  31  88 E10G22    30.20R WCI  26
MOSINEE        CLOUDY    34  34 100 NE20      30.21R WCI  22
MARSHFIELD     CLOUDY    35  31  85 E15G25    30.16S WCI  25
STEVENS POINT  CLOUDY    34  32  92 NE16G24   30.19S WCI  23
WAUPACA        CLOUDY    37  33  88 NE8G17    30.21S FOG     WCI  30
WAUTOMA        MIX PCPN  35  33  92 E16       30.19R WCI  25
WISC RAPIDS    CLOUDY    36  33  89 E13G24    30.18S WCI  27
CAMP DOUGLAS   CLOUDY    36  34  93 E13G18    30.15S WCI  27
$$

WIZ011>013-019>022-031-037>040-048>050-251500-
NORTHEAST WISCONSIN

CITY           SKY/WX    TMP DP  RH WIND       PRES   REMARKS
ANTIGO         CLOUDY    32  31  94 E10G17    30.22S WCI  24
SHAWANO        CLOUDY    37  33  86 E14       30.25R WCI  28
OCONTO         CLOUDY    35  32  90 NE8       30.27R WCI  28
STURGEON BAY   CLOUDY    36  33  89 E10G20    30.27R WCI  28
GREEN BAY      CLOUDY    36  36 100 NE17      30.23R WCI  26
MANITOWOC      CLOUDY    37  34  89 NE14G21   30.22S WCI  28
APPLETON       CLOUDY    34  34 100 NE17G24   30.19R FOG     WCI  23
CLINTONVILLE   CLOUDY    36  32  87 NE17G24   30.23R WCI  25
OSHKOSH        CLOUDY    36  33  89 NE13      30.19R WCI  27
$$

WIZ032>034-041-042-053>061-251500-
SOUTHWEST WISCONSIN

CITY           SKY/WX    TMP DP  RH WIND       PRES   REMARKS
LA CROSSE      CLOUDY    39  34  82 NE10      30.13S WCI  32
SPARTA         CLOUDY    36  33  90 E12G21    30.15S WCI  28
VIROQUA        CLOUDY    35  34  99 E13       30.10R WCI  26
BOSCOBEL       CLOUDY    38  35  89 NE10G20   30.09F WCI  31
PRAIRIE DU CHI CLOUDY    37  36  96 NE9       30.06F WCI  30
PLATTEVILLE    CLOUDY    37  37 100 NE20G26   30.04R WCI  26
$$

WIZ056-057-062-063-064-067-068-251500-
SOUTH CENTRAL WISCONSIN

CITY           SKY/WX    TMP DP  RH WIND       PRES   REMARKS
REEDSBURG      CLOUDY    34  34 100 NE9G20    30.13S FOG     WCI  27
BARABOO/DELLS  CLOUDY    35  34  96 NE15      30.12F FOG     WCI  25
LONE ROCK      CLOUDY    38  35  89 NE13      30.10F FOG     WCI  30
MINERAL POINT  CLOUDY    36  36 100 NE18G26   30.03F FOG     WCI  25
MADISON        LGT RAIN  37  35  92 NE20      30.10F WCI  27
MIDDLETON      CLOUDY    38  37  95 NE14G22   30.10F WCI  29
WATERTOWN      CLOUDY    37  37 100 NE12G18   30.12S WCI  29
MONROE         CLOUDY    36  36 100 NE21G26   30.04R FOG     WCI  24
JANESVILLE     CLOUDY    39  39 100 NE18G24   30.07S WCI  30
$$

WIZ051-052-058>065-066-070>072-251500-
SOUTHEAST WISCONSIN

CITY           SKY/WX    TMP DP  RH WIND       PRES   REMARKS
MILWAUKEE      DRIZZLE   38  36  92 NE17G24   30.13F WCI  28
WAUKESHA       CLOUDY    36  34  93 NE13G23   30.14R FOG     WCI  27
MILWAUKEE/TIMM CLOUDY    37  34  87 NE13G23   30.16R WCI  29
RACINE         CLOUDY    38  36  92 NE15      30.14S WCI  29
KENOSHA        RAIN      39  37  92 NE20G28   30.10S FOG     WCI  29
FOND DU LAC    CLOUDY    37  33  85 E15       30.18R WCI  28
SHEBOYGAN      CLOUDY    36  34  92 NE17      30.20R FOG     WCI  26
WEST BEND      CLOUDY    36  36 100 NE16G22   30.17R WCI  26
JUNEAU         LGT RAIN  36  34  94 NE12G18   30.15S WCI  27
$$

LSZ147-162-251500-
LAKE SUPERIOR

STATION/POSITION TIME  TEMP    WIND        PRES    WAVE
                       AIR SEA DIR/SP/G            HT/PER
                 (UTC) (F)     (DEG/KT/KT) (MB)    (FT/S)
DEVILS ISLAND    1400   33      70/ 19/ 21 1027.7F
PORT WING        1340   35      60/  9/ 15 1026.4R
SAXON HARBOR     1340   33      50/ 10/ 12 1025.4F
$$

LMZ867-665-643>646-251500-
LAKE MICHIGAN

STATION/POSITION TIME  TEMP    WIND        PRES    WAVE
                       AIR SEA DIR/SP/G            HT/PER
                 (UTC) (F)     (DEG/KT/KT) (MB)    (FT/S)
CHAMBERS ISLAND  1340   34      30/ 11/ 15 1024.7R
NORTHPORT PIER   1340   35      60/ 14/ 18 1025.7R
SISTER BAY       1335   36      10/  8/ 14   N/A
KEWAUNEE LAKESHO 1354   37      60/ 12/ 17 1023.2R
SHEBOYGAN LAKESH 1400   36      40/ 18/ 20 1023.0R
PORT WASHINGTON  1340   38      30/ 12/ 20 1022.7R
MILWAUKEE LAKESH 1400   37      30/ 18/ 20   N/A
KENOSHA   LAKESH 1400   38      20/ 19/ 23 1019.3
$$

TC  - TEMPERATURE IN CELSIUS
VSB - VISIBILITY IN STATUTE MILES
WCI - WIND CHILL INDEX
HX  - HEAT INDEX




USA.gov is the U.S. government's official web portal to all federal, state and local government web resources and services.